CW9688 Weather Reports


time (UTC)temp
C
wind
direction
speed
KPH
gust
KPH
rain 1hr
cm
rain 24hr
cm
rain mn
cm
humidity
%
barometer
mb
20260510071304 9 313 0.0 0.0 0.00 0.00 0.00 72 1008.2
20260510070305 9 313 0.0 3.2 0.00 0.00 0.00 72 1008.2
20260510065804 9 313 1.6 3.2 0.00 0.00 0.00 72 1008.2
20260510064305 9 313 3.2 4.8 0.00 0.00 0.00 73 1008.2
20260510063304 9 313 3.2 4.8 0.00 0.00 0.00 74 1008.2
20260510062804 9 313 1.6 8.0 0.00 0.00 0.00 75 1008.2
20260510062307 9 342 1.6 3.2 0.00 0.00 0.00 76 1008.2
20260510061804 9 342 1.6 3.2 0.00 0.00 0.00 76 1008.2
20260510060816 9 342 4.8 9.7 0.00 0.00 0.00 76 1008.2
20260510055306 9 3 3.2 4.8 0.00 0.00 0.00 76 1008.2
20260510054804 9 344 6.4 8.0 0.00 0.00 0.00 76 1008.2
20260510054305 9 351 1.6 4.8 0.00 0.00 0.00 76 1008.2
20260510052805 9 11 8.0 11.3 0.00 0.00 0.00 75 1008.2
20260510051805 10 11 9.7 12.9 0.00 0.00 0.00 74 1008.2
20260510050804 10 337 8.0 11.3 0.00 0.00 0.00 73 1008.2
20260510045306 10 349 8.0 14.5 0.00 0.00 0.00 75 1008.2
20260510044804 10 21 8.0 11.3 0.00 0.00 0.00 75 1008.2
20260510041805 10 21 6.4 11.3 0.00 0.00 0.00 75 1008.2
20260510040305 10 4 8.0 14.5 0.00 0.00 0.00 72 1008.2
20260510035306 10 11 9.7 16.1 0.00 0.00 0.00 69 1008.2
20260510034304 10 357 12.9 20.9 0.00 0.00 0.00 66 1008.2
20260510033805 10 1 9.7 24.1 0.00 0.00 0.00 66 1008.2
20260510032805 11 354 11.3 19.3 0.00 0.00 0.00 67 1008.2
20260510030804 11 2 16.1 24.1 0.00 0.00 0.00 67 1008.2
20260510030305 11 347 16.1 27.4 0.00 0.00 0.00 67 1008.2
20260510025306 11 1 17.7 32.2 0.00 0.00 0.00 67 1008.2
20260510024305 11 2 19.3 33.8 0.00 0.00 0.00 67 1008.2
20260510023804 11 354 16.1 32.2 0.00 0.00 0.00 68 1008.2
20260510022805 11 5 29.0 48.3 0.00 0.00 0.00 69 1008.2
20260510022306 11 1 14.5 37.0 0.00 0.00 0.00 69 1008.2
20260510021804 11 354 20.9 45.1 0.00 0.00 0.00 68 1008.2
20260510020305 11 352 27.4 49.9 0.00 0.00 0.00 67 1008.2
20260510015805 11 358 25.7 37.0 0.00 0.00 0.00 67 1008.2
20260510015306 12 337 20.9 37.0 0.00 0.00 0.00 67 1008.2
20260510012805 12 4 16.1 45.1 0.00 0.00 0.00 61 1008.2
20260510012307 13 7 30.6 57.9 0.00 0.00 0.00 60 1008.2
20260510011305 13 358 24.1 45.1 0.00 0.00 0.00 57 1008.2
20260510005804 14 351 33.8 53.1 0.00 0.00 0.00 55 1008.2
20260510001805 22 46 8.0 16.1 0.00 0.00 0.00 24 1008.2
20260510000805 22 38 6.4 12.9 0.00 0.00 0.00 26 1008.2
20260509235805 22 64 11.3 19.3 0.00 0.00 0.00 26 1008.2
20260509235307 22 37 9.7 19.3 0.00 0.00 0.00 23 1008.2
20260509234805 22 56 9.7 19.3 0.00 0.00 0.00 24 1008.2
20260509233805 22 46 8.0 12.9 0.00 0.00 0.00 23 1008.2
20260509231804 22 39 6.4 19.3 0.00 0.00 0.00 20 1008.2
20260509231304 23 55 9.7 19.3 0.00 0.00 0.00 21 1008.2
20260509225805 23 80 9.7 19.3 0.00 0.00 0.00 22 1008.2
20260509225306 23 77 9.7 12.9 0.00 0.00 0.00 20 1008.2
20260509224305 22 354 8.0 16.1 0.00 0.00 0.00 20 1008.2
20260509223805 23 12 11.3 19.3 0.00 0.00 0.00 21 1008.2
20260509223304 23 29 9.7 16.1 0.00 0.00 0.00 20 1008.2
20260509221804 24 36 14.5 24.1 0.00 0.00 0.00 21 1008.2
20260509220805 23 66 14.5 32.2 0.00 0.00 0.00 21 1008.2
20260509220305 24 47 14.5 32.2 0.00 0.00 0.00 22 1008.2
20260509213804 23 29 11.3 20.9 0.00 0.00 0.00 21 1008.2
20260509213305 24 22 12.9 24.1 0.00 0.00 0.00 21 1008.2
20260509212805 24 54 16.1 27.4 0.00 0.00 0.00 21 1008.2
20260509204805 23 18 14.5 20.9 0.00 0.00 0.00 20 1008.2
20260509203805 23 76 8.0 22.5 0.00 0.00 0.00 23 1008.2
20260509203305 23 56 11.3 20.9 0.00 0.00 0.00 21 1008.2
20260509202805 23 61 14.5 27.4 0.00 0.00 0.00 21 1008.2
20260509202307 23 62 8.0 11.3 0.00 0.00 0.00 22 1008.2
20260509201805 23 77 3.2 14.5 0.00 0.00 0.00 21 1008.2
20260509201305 23 46 19.3 27.4 0.00 0.00 0.00 21 1008.2
20260509200805 23 58 11.3 24.1 0.00 0.00 0.00 22 1008.2
20260509195306 23 308 9.7 19.3 0.00 0.00 0.00 22 1008.2
20260509193805 23 58 9.7 19.3 0.00 0.00 0.00 22 1008.2
20260509192805 23 56 8.0 20.9 0.00 0.00 0.00 22 1008.2
20260509191804 23 22 11.3 20.9 0.00 0.00 0.00 22 1008.2
20260509185306 23 106 14.5 19.3 0.00 0.00 0.00 23 1008.2
20260509184805 23 111 9.7 19.3 0.00 0.00 0.00 25 1008.2
20260509183304 22 57 11.3 20.9 0.00 0.00 0.00 25 1008.2
20260509182805 22 87 14.5 24.1 0.00 0.00 0.00 24 1008.2
20260509175804 22 7 11.3 22.5 0.00 0.00 0.00 26 1008.3
20260509174805 21 43 12.9 22.5 0.00 0.00 0.00 26 1008.3
20260509173304 21 39 20.9 32.2 0.00 0.00 0.00 27 1007.5
20260509172805 21 33 16.1 24.1 0.00 0.00 0.00 28 1007.5
20260509172306 22 67 12.9 27.4 0.00 0.00 0.00 27 1007.5
20260509171305 22 40 12.9 29.0 0.00 0.00 0.00 26 1007.5
20260509170805 22 10 14.5 24.1 0.00 0.00 0.00 27 1007.5
20260509170304 22 46 9.7 24.1 0.00 0.00 0.00 22 1007.5
20260509165804 22 69 4.8 19.3 0.00 0.00 0.00 21 1007.5
20260509165306 22 7 11.3 19.3 0.00 0.00 0.00 21 1007.5
20260509164804 22 28 6.4 12.9 0.00 0.00 0.00 21 1007.5
20260509164305 22 65 8.0 11.3 0.00 0.00 0.00 21 1007.5
20260509163805 22 98 3.2 9.7 0.00 0.00 0.00 23 1007.5
20260509163305 22 27 3.2 9.7 0.00 0.00 0.00 21 1007.5
20260509162307 21 355 4.8 9.7 0.00 0.00 0.00 24 1007.5
20260509160805 21 120 3.2 8.0 0.00 0.00 0.00 25 1007.5
20260509160304 21 359 4.8 8.0 0.00 0.00 0.00 25 1007.5
20260509155805 21 88 6.4 8.0 0.00 0.00 0.00 24 1007.5
20260509154804 21 71 6.4 9.7 0.00 0.00 0.00 25 1007.5
20260509154304 20 351 4.8 9.7 0.00 0.00 0.00 25 1007.5
20260509152805 20 290 6.4 9.7 0.00 0.00 0.00 25 1007.5
20260509150805 19 295 3.2 8.0 0.00 0.00 0.00 29 1007.5
20260509150304 18 306 3.2 9.7 0.00 0.00 0.00 32 1007.5
20260509145805 18 5 3.2 9.7 0.00 0.00 0.00 35 1007.5
20260509145306 17 262 1.6 9.7 0.00 0.00 0.00 37 1007.5
20260509141304 15 156 4.8 8.0 0.00 0.00 0.00 50 1007.5
20260509140804 14 96 1.6 8.0 0.00 0.00 0.00 54 1007.5
20260509140304 13 77 3.2 8.0 0.00 0.00 0.00 54 1007.5
20260509135306 12 63 1.6 3.2 0.00 0.00 0.00 60 1007.5
20260509134805 12 63 1.6 3.2 0.00 0.00 0.00 58 1007.5
20260509134305 12 63 0.0 1.6 0.00 0.00 0.00 61 1007.5
20260509133305 12 63 1.6 4.8 0.00 0.00 0.00 59 1007.5
20260509131305 11 229 3.2 4.8 0.00 0.00 0.00 57 1007.5
20260509125804 10 170 4.8 8.0 0.00 0.00 0.00 65 1007.5
20260509123805 10 227 1.6 3.2 0.00 0.00 0.00 64 1007.5
20260509123304 9 227 3.2 4.8 0.00 0.00 0.00 65 1007.5
20260509122804 8 227 3.2 4.8 0.00 0.00 0.00 67 1007.5
20260509122306 8 274 3.2 4.8 0.00 0.00 0.00 68 1007.5
20260509121304 8 5 1.6 4.8 0.00 0.00 0.00 69 1007.5
20260509120805 8 5 0.0 3.2 0.00 0.00 0.00 72 1007.5
20260509115805 8 44 3.2 8.0 0.00 0.00 0.00 73 1007.5
20260509114304 8 197 1.6 3.2 0.00 0.00 0.00 71 1007.5
20260509113805 8 197 0.0 1.6 0.00 0.00 0.00 70 1007.5
20260509113305 8 197 3.2 4.8 0.00 0.00 0.00 71 1007.5
20260509112805 8 197 3.2 4.8 0.00 0.00 0.00 73 1007.5
20260509111805 8 197 3.2 4.8 0.00 0.00 0.00 73 1007.5
20260509110805 7 82 3.2 4.8 0.00 0.00 0.00 74 1007.5
20260509105306 8 70 3.2 4.8 0.00 0.00 0.00 73 1007.5
20260509104304 8 206 1.6 3.2 0.00 0.00 0.00 72 1007.5
20260509100805 8 211 3.2 4.8 0.00 0.00 0.00 74 1007.5
20260509100305 8 357 3.2 4.8 0.00 0.00 0.00 74 1007.5
20260509093804 10 184 1.6 3.2 0.00 0.00 0.00 69 1007.5
20260509093305 10 184 0.0 3.2 0.00 0.00 0.00 69 1007.5
20260509091804 10 184 3.2 4.8 0.00 0.00 0.00 67 1007.5
20260509091305 10 223 3.2 4.8 0.00 0.00 0.00 67 1007.5
20260509090304 11 243 1.6 3.2 0.00 0.00 0.00 66 1007.5
20260509082306 11 226 1.6 4.8 0.00 0.00 0.00 63 1007.5
20260509081304 11 265 3.2 4.8 0.00 0.00 0.00 62 1007.5
20260509074805 13 240 4.8 4.8 0.00 0.00 0.00 56 1007.5
20260509074305 13 213 4.8 9.7 0.00 0.00 0.00 56 1007.5
20260509073805 13 237 3.2 9.7 0.00 0.00 0.00 55 1007.5
20260509073304 13 212 8.0 14.5 0.00 0.00 0.00 55 1007.5
20260509072805 13 218 6.4 9.7 0.00 0.00 0.00 55 1007.5